Oujda, Morocco

11:52 PM WEST on August 29, 2016 (GMT +0100)
Angads

Weather History for GMFO - November, 2012

Change the Weather History Date:

Friday, November 9, 2012

  Actual Average Record
Temperature  
Mean Temperature 68 °F -  
Max Temperature 78 °F 64 °F 79 °F (2015)
Min Temperature 59 °F 44 °F 39 °F (1999)
Cooling Degree Days 4    
Growing Degree Days 18 (Base 50)    
Moisture  
Dew Point 57 °F    
Average Humidity 69    
Maximum Humidity 100    
Minimum Humidity 32    
Precipitation  
Precipitation 0.00 in 0.05 in - ()
Sea Level Pressure  
Sea Level Pressure 29.96 in    
Wind  
Wind Speed 10 mph ()    
Max Wind Speed 18 mph    
Max Gust Speed -    
Visibility 5.1 miles    
Events Rain    
Averages and records for this station are not official NWS values.
T = Trace of Precipitation, MM = Missing Value Source: Averaged Metar Reports

Daily Weather History Graph

Daily Weather History Graph

Search for Another Location

Airport or City:

Trip Planner

Search our weather history database for the weather conditions in past years. The results will help you decide how hot, cold, wet, or windy it might be!

Date:

Astronomy

Nov. 09, 2012 Rise Set
Actual Time 6:36 AM WET 5:06 PM WET
Civil Twilight 6:09 AM WET 5:33 PM WET
Nautical Twilight 5:39 AM WET 6:03 PM WET
Astronomical Twilight 5:09 AM WET 6:32 PM WET
Moon 1:30 AM WET (11/9) 2:01 PM WET (11/9)
Length of Visible Light 11h 23m
Length of Day
10h 30m
Waning Crescent, 25% of the Moon is Illuminated
Nov 9
Waning Crescent
Nov 13
New
Nov 20
First Quarter
Nov 28
Full
Dec 6
Last Quarter

Hourly Weather History & Observations

Time (WET) Temp. Dew Point Humidity Pressure Visibility Wind Dir Wind Speed Gust Speed Precip Events Conditions
12:00 AM 73 °F 49 °F 32% 29.93 in 9 mi SW 9.2 mph - -   Partly Cloudy
12:00 AM 73.4 °F 50.0 °F 44% 29.98 in 6.2 mi SW 9.2 mph - N/A   Scattered Clouds
3:00 AM 72 °F 54 °F 42% 29.91 in 9 mi South 12.7 mph - -   Partly Cloudy
3:00 AM 71.6 °F 53.6 °F 53% 29.95 in 6.2 mi South 12.7 mph - N/A   Scattered Clouds
5:00 AM 71.6 °F 55.4 °F 57% 29.95 in 6.2 mi South 10.4 mph - N/A   Scattered Clouds
6:00 AM 69.8 °F 55.4 °F 60% 29.95 in 6.2 mi South 9.2 mph - N/A   Scattered Clouds
8:00 AM 69.8 °F 55.4 °F 60% 29.98 in 6.2 mi SE 6.9 mph - N/A   Scattered Clouds
9:00 AM 73 °F 55 °F 43% 29.91 in 6 mi SSW 5.8 mph - -   Partly Cloudy
9:00 AM 73.4 °F 55.4 °F 53% 29.98 in 6.2 mi SSW 5.8 mph - N/A   Scattered Clouds
10:00 AM 77.0 °F 55.4 °F 47% 29.98 in - North - - N/A   Mostly Cloudy
11:00 AM 77.0 °F 55.4 °F 47% 29.98 in 5.0 mi SSW 16.1 mph - N/A   Mostly Cloudy
12:00 PM 78 °F 55 °F 35% 29.88 in 4 mi SSW 12.7 mph - -   Overcast
12:00 PM 77.0 °F 55.4 °F 47% 29.95 in 3.7 mi SSW 12.7 mph - N/A   Mostly Cloudy
12:28 PM 66.2 °F 60.8 °F 83% 29.95 in 3.7 mi North 18.4 mph - N/A   Mostly Cloudy
1:00 PM 66.2 °F 60.8 °F 83% 29.95 in 3.7 mi North 18.4 mph - N/A   Mostly Cloudy
2:00 PM 64.4 °F 60.8 °F 88% 29.95 in 3.7 mi North 18.4 mph - N/A   Mostly Cloudy
3:00 PM 64 °F 62 °F 89% 29.94 in 4 mi NNE 11.5 mph - -   Overcast
3:00 PM 64.4 °F 60.8 °F 88% 29.98 in 3.7 mi NNE 11.5 mph - N/A   Mostly Cloudy
4:00 PM 64.4 °F 62.6 °F 94% 29.95 in 3.7 mi ESE 16.1 mph - N/A Rain Rain
5:00 PM 64.4 °F 62.6 °F 94% 29.95 in 3.7 mi NNW 4.6 mph - N/A   Mostly Cloudy
7:00 PM 62.6 °F 60.8 °F 94% 29.98 in 3.7 mi NNW 13.8 mph - N/A   Mostly Cloudy
8:00 PM 60.8 °F 59.0 °F 94% 30.01 in 3.7 mi North 11.5 mph - N/A   Mostly Cloudy
9:00 PM 59 °F 58 °F 97% 29.99 in 5 mi NNW 5.8 mph - -   Overcast
9:00 PM 59.0 °F 59.0 °F 100% 30.01 in 5.0 mi NNW 5.8 mph - N/A   Mostly Cloudy
11:00 PM 59.0 °F 57.2 °F 94% 30.01 in 5.0 mi Variable 2.3 mph - N/A   Mostly Cloudy